Regional Weather Roundup
Issued by NWS

Home | Current Version | Previous Version | Graphics & Text | Print | Product List | Glossary On
Versions: 1 2 3 4 5 6 7 8 9 10 11 12 13 14 15 16 17 18 19 20 21 22 23 24 25 26 27 28 29 30 31 32 33 34 35 36 37 38 39 40 41 42 43 44 45 46 47 48 49 50
000
ASUS45 KSLC 061910
RWRUT

UTAH REGIONAL WEATHER ROUNDUP
NATIONAL WEATHER SERVICE SALT LAKE CITY UT
1200 PM MST FRI MAR 06 2015

UTZ001>011-023>025-062000-

NORTHERN UTAH

CITY           SKY/WX    TMP DP  RH WIND       PRES   REMARKS
BRIGHAM CITY   SUNNY     46  25  43 CALM      30.47S
HILL AFB       SUNNY     47  18  31 SE2       30.45F
LOGAN          SUNNY     45  21  38 VRB3      30.46F
OGDEN          SUNNY     48  20  32 CALM      30.46S
PROVO AIRPORT  SUNNY     43  27  52 VRB5      30.47F
SALT LAKE CITY MOSUNNY   49  23  36 CALM      30.45F
VERNAL         SUNNY     39  22  50 CALM      30.46F
WENDOVER       SUNNY     45  23  42 SE3       30.46F
HEBER CITY     SUNNY     37  23  56 CALM      30.45F
WEST JORDAN    SUNNY     48  25  40 E5        30.46F

$$

UTZ012>022-026-027-062000-

SOUTHERN/CENTRAL UTAH

CITY           SKY/WX    TMP DP  RH WIND       PRES   REMARKS
BLANDING       SUNNY     43  22  44 CALM      30.49S
BRYCE CANYON   SUNNY     34  14  43 CALM      30.43F
CEDAR CITY     SUNNY     41  10  28 CALM      30.41F
DELTA          SUNNY     45  23  41 CALM      30.45F
HANKSVILLE     SUNNY     48  21  34 W3        30.46F
MILFORD        SUNNY     48  25  40 N10       30.43F
MOAB/CYNLANDS  SUNNY     48  19  31 VRB3      30.43F
PRICE          SUNNY     42  20  41 SE5       30.43F
ST GEORGE      CLEAR     52  28  40 CALM      30.40F
KANAB          SUNNY     54  19  26 NE12      30.42F

$$

REGIONAL REPORTS     COLORADO/ARIZONA

CITY           SKY/WX    TMP DP  RH WIND       PRES   REMARKS
CRAIG, CO      SUNNY     39  17  41 E6        30.43F WCI  35
GRAND JUNCTION SUNNY     45  16  31 VRB6      30.44F
RIFLE          SUNNY     41  16  36 CALM      30.44F
MONTROSE       SUNNY     41  16  36 CALM      30.45F
CORTEZ         SUNNY     45  17  32 SW3       30.41F
PAGE, AZ       SUNNY     48  27  44 NE5       30.42F
GRAND CANYON     N/A    N/A N/A N/A MISG      30.39R
KINGMAN        SUNNY     60  24  25 N14       30.28F
FLAGSTAFF      SUNNY     43  13  29 E15       30.37S

$$

REGIONAL REPORTS    NEVADA/IDAHO/WYOMING

CITY           SKY/WX    TMP DP  RH WIND       PRES   REMARKS
LAS VEGAS, NV  SUNNY     64  21  19 E8        30.28F
ELY            SUNNY     46  20  35 N9        30.45S
ELKO           SUNNY     48  16  27 CALM      30.45F
POCATELLO, ID  SUNNY     47  25  42 W8        30.45F
BURLEY         SUNNY     52  18  26 SW8       30.42F
EVANSTON, WY   SUNNY     40  17  39 SW12      30.43F WCI  33
ROCK SPRINGS   SUNNY     37  19  48 W22       30.37F WCI  26
KEMMERER       SUNNY     37  18  44 W18G24    30.40F WCI  27

$$



USA.gov is the U.S. government's official web portal to all federal, state and local government web resources and services.